GFSSGP_925_spd_078.txt.gz
Wind_Speed
5 5 2 3 7 9 23 21 12 16 17 11 2 3 1 4 3 1 3 9 17 24 25 25 25 22 19 21 19 17 16 15 20 23 23 22 22 22 19 19 19 20 20 19 18 17 16 15 17
5 3 3 3 10 19 17 21 18 16 17 11 4 2 5 3 3 2 3 7 20 24 24 24 24 22 20 22 19 18 16 13 22 25 24 25 25 22 20 19 18 19 19 18 16 15 15 16 16
4 4 4 5 14 22 19 23 19 17 5 12 7 2 3 3 5 4 4 11 20 23 23 23 24 22 20 22 20 18 16 13 19 25 27 27 24 22 21 20 20 19 18 17 16 16 15 15 15
5 4 4 11 23 20 27 21 16 19 5 6 8 5 2 9 5 10 3 15 19 21 20 21 24 22 20 23 21 18 16 15 17 21 25 25 23 20 20 20 22 20 18 16 16 17 18 15 13
6 3 12 19 24 23 17 22 15 22 17 10 12 10 6 11 2 10 4 16 20 20 20 20 23 23 22 22 21 17 15 18 16 19 23 22 20 19 19 18 21 19 16 15 15 15 14 14 12
5 6 12 21 24 25 21 15 22 18 17 21 15 16 8 13 6 5 11 11 18 19 19 20 21 22 24 23 20 17 16 18 18 17 19 21 19 18 18 16 16 16 15 14 14 13 13 11 10
10 11 20 22 21 26 21 20 19 21 21 18 17 23 12 13 17 9 5 8 17 17 18 19 20 19 24 23 20 16 17 18 19 17 16 17 16 17 17 16 15 15 15 14 13 12 11 11 10
6 10 24 22 20 26 18 20 20 18 23 16 16 14 18 20 18 18 10 14 6 15 18 18 19 20 20 21 19 16 16 20 19 16 15 14 16 16 16 15 15 15 15 14 12 11 10 10 9
8 8 16 24 25 22 18 19 20 19 18 17 15 19 10 16 22 16 12 3 18 21 18 19 20 20 20 20 20 17 16 19 21 19 19 17 14 14 14 14 14 14 13 12 11 10 10 8 7
11 14 22 20 22 19 21 16 16 16 22 17 13 17 4 19 22 17 15 9 15 26 18 19 20 20 20 19 21 18 17 15 16 16 18 15 14 14 12 13 14 13 12 11 11 10 9 8 5
10 20 17 18 16 18 20 19 19 16 19 18 15 15 13 17 17 18 22 11 2 17 28 20 19 19 19 19 18 21 19 16 14 15 16 14 13 12 12 10 10 9 10 8 8 8 7 7 6
13 19 21 22 17 16 20 18 19 17 23 21 15 15 16 15 15 15 22 24 14 7 23 12 21 19 18 18 18 16 18 16 14 15 15 14 12 13 12 11 11 10 9 9 9 8 8 7 6
17 22 18 19 18 19 16 21 24 22 19 21 21 14 18 18 20 16 21 21 12 6 15 16 24 19 18 18 18 16 15 17 14 14 14 12 11 11 11 10 10 10 10 10 9 9 9 8 7
11 13 19 20 17 17 21 20 18 19 20 16 19 12 15 19 21 22 20 19 26 26 9 15 13 21 18 17 18 18 16 15 15 15 13 11 10 10 10 10 10 10 10 10 10 9 9 9 8
13 19 20 20 20 15 18 21 27 18 11 21 24 11 14 20 23 25 25 26 31 26 18 7 8 5 17 14 14 15 15 16 14 14 13 12 10 9 9 10 10 10 10 11 11 11 10 9 9
10 11 14 15 21 20 12 24 22 20 15 17 20 12 6 20 23 24 22 22 22 19 23 18 12 8 11 12 14 14 14 14 14 13 13 13 12 11 11 11 11 10 11 11 12 11 11 10 10
8 6 17 12 20 16 20 9 15 13 13 16 18 11 6 11 18 22 22 20 20 20 26 17 13 13 12 9 12 17 16 15 14 14 14 15 15 14 13 13 13 12 13 13 13 13 13 12 10
4 12 12 17 14 21 21 18 3 7 14 14 11 8 3 18 15 18 20 17 16 18 20 17 18 20 17 14 12 15 17 14 10 10 12 13 13 15 15 15 14 14 14 14 15 15 14 13 12
2 6 9 7 12 21 9 10 3 12 7 11 4 5 12 10 3 7 18 19 17 19 22 19 19 16 10 10 15 17 18 15 13 11 9 11 12 13 15 17 16 16 17 18 17 17 16 14 12
5 11 4 6 4 14 12 8 6 12 9 5 5 3 8 6 1 6 20 17 19 19 24 24 23 22 15 16 12 13 12 13 10 6 10 15 14 16 17 17 23 26 20 19 19 19 17 16 15
7 15 9 5 12 10 10 2 1 4 8 3 3 7 8 8 7 5 9 18 13 16 18 27 25 32 30 26 20 13 8 8 4 10 11 13 16 17 19 19 24 26 29 23 22 24 22 16 13
7 16 15 10 1 4 1 3 2 3 10 6 9 10 9 6 4 7 8 12 19 20 25 30 28 27 32 34 24 20 15 13 15 20 23 24 13 14 12 14 20 25 29 33 23 21 20 15 13
4 12 8 7 1 6 3 3 5 4 8 7 9 10 9 7 3 4 3 7 4 6 9 12 17 26 29 30 31 28 24 25 19 14 20 25 18 15 12 15 20 20 22 22 26 14 10 7 8
1 14 7 4 2 3 2 3 3 4 6 6 10 9 9 10 6 3 9 10 11 9 9 6 8 5 6 15 21 26 21 21 27 29 26 20 19 18 14 20 22 18 16 18 16 13 9 6 6
7 5 3 3 1 4 4 6 4 10 9 3 10 10 10 6 3 10 10 13 13 12 11 10 9 9 5 5 4 8 15 21 24 29 29 25 25 29 28 29 29 24 19 19 17 14 11 11 8
3 3 2 4 3 4 5 6 5 9 11 10 10 12 11 11 7 12 12 13 13 12 14 14 14 12 10 8 5 3 4 8 13 18 20 21 23 26 28 29 25 23 22 20 19 18 14 13 9
1 2 1 7 2 5 4 5 10 9 13 12 13 14 10 10 9 13 15 15 15 16 17 16 14 13 12 9 7 5 2 3 5 8 9 12 16 18 20 24 24 24 22 21 21 20 18 15 14
3 2 2 2 3 5 3 5 7 8 11 11 15 13 7 9 13 11 13 15 16 16 15 15 14 13 12 10 7 5 4 3 3 4 6 9 10 15 18 24 25 23 21 19 18 15 14 15 17
3 1 3 3 3 3 5 4 3 7 9 11 11 10 10 9 8 6 10 12 13 13 14 15 16 15 14 11 9 8 7 5 5 5 5 7 8 12 17 23 23 21 20 19 17 16 16 15 14
2 4 4 2 2 4 4 5 1 5 8 8 10 9 9 7 7 8 11 13 14 14 13 14 13 13 13 12 10 8 7 6 6 7 6 6 7 9 15 21 20 20 19 18 18 17 15 15 13

GFSSGP_925_spd_081.txt.gz
Wind_Speed
8 7 6 7 8 9 22 25 22 19 23 15 11 7 10 13 6 2 3 5 9 18 24 25 24 22 20 17 16 14 14 14 20 20 21 21 20 20 19 19 19 19 17 17 16 16 15 16 15
4 8 9 7 12 17 18 22 25 20 13 11 5 5 13 4 7 5 5 3 8 20 27 24 25 22 21 19 17 16 15 16 21 22 23 22 22 21 19 19 19 19 18 17 16 15 14 16 13
6 8 8 6 17 22 19 18 19 20 15 7 7 4 8 1 8 4 7 5 8 16 22 24 25 21 21 20 18 16 14 15 21 22 23 23 23 21 20 19 20 18 17 16 14 14 15 15 11
8 6 6 14 23 23 28 22 14 19 17 10 9 14 5 4 4 4 2 5 11 13 18 22 24 21 20 21 18 16 14 13 22 23 24 24 23 21 20 21 19 18 16 15 16 14 13 14 11
12 7 14 19 28 24 18 21 23 17 18 15 16 19 5 6 7 6 8 4 13 16 17 19 23 20 19 21 19 17 14 14 20 22 24 23 23 20 20 22 20 18 16 15 16 17 15 12 11
8 8 14 21 25 23 24 21 17 25 19 22 21 19 15 13 10 4 11 8 8 17 16 17 19 20 19 20 20 17 16 15 18 22 23 23 21 19 18 21 20 17 16 15 14 14 13 12 10
14 13 20 24 22 22 21 22 24 18 21 20 19 23 13 14 14 11 14 3 10 7 12 16 16 16 20 20 20 16 16 17 17 19 20 23 20 18 16 16 16 15 15 14 13 12 11 10 9
10 13 25 23 21 25 19 22 24 23 23 19 21 17 16 15 20 11 15 16 8 18 8 10 14 15 17 17 18 16 17 20 19 19 20 18 17 17 16 16 14 15 15 13 12 11 10 9 7
10 7 16 25 25 19 21 21 20 18 18 20 24 23 16 3 18 12 12 24 18 22 20 9 15 17 19 19 17 16 17 21 20 18 18 16 15 15 15 14 15 14 14 12 11 10 9 8 6
11 14 23 21 20 21 22 23 20 17 21 21 23 21 20 14 12 12 15 17 16 20 40 35 22 20 22 20 20 17 16 17 18 16 16 15 14 15 15 14 14 13 13 12 11 10 9 7 5
10 19 20 18 21 20 22 22 20 18 21 18 19 15 11 14 14 10 10 17 18 18 25 31 37 36 26 24 23 21 18 17 17 18 18 17 17 14 12 11 12 11 12 9 10 9 8 8 7
20 20 19 21 23 22 17 19 24 20 22 20 19 18 9 9 13 15 17 21 23 22 26 26 36 44 31 22 27 22 21 19 18 18 19 17 16 15 14 13 13 12 11 10 10 9 9 8 8
20 19 20 22 20 23 21 20 22 22 22 18 22 13 10 7 14 18 21 21 25 22 22 23 29 34 26 27 27 24 18 20 17 18 18 16 14 15 14 12 12 12 11 11 10 10 10 10 9
17 18 19 20 21 20 21 23 21 23 22 19 17 19 22 15 13 16 21 23 22 20 22 20 21 27 23 25 25 24 20 18 20 17 17 15 14 14 13 12 11 10 10 11 11 11 10 10 10
15 18 20 23 18 21 17 22 26 26 20 18 24 16 15 14 16 23 22 22 26 24 26 22 12 14 21 18 18 19 20 19 16 16 16 14 12 12 12 11 11 11 11 11 11 11 11 11 11
17 17 16 12 21 22 19 19 26 22 20 20 16 17 17 19 12 23 24 22 15 18 18 13 8 8 3 15 15 14 14 15 17 18 17 16 13 12 12 11 12 12 11 11 12 12 12 12 12
11 14 17 18 18 16 20 20 22 16 23 21 14 16 14 10 10 22 19 19 18 15 15 13 16 14 8 10 13 14 14 14 14 13 14 15 14 13 11 12 11 11 11 11 12 13 14 13 13
11 8 14 16 15 19 22 20 2 5 9 15 16 16 15 7 8 6 14 12 13 15 18 18 22 24 17 6 10 14 16 15 13 14 13 13 14 13 12 11 11 11 13 13 14 14 15 15 15
11 14 14 11 14 18 23 19 14 5 7 12 16 15 8 9 3 9 15 12 9 14 20 19 22 22 17 11 14 14 19 17 14 12 12 11 11 11 12 12 12 9 12 14 16 17 17 16 15
16 14 16 14 11 11 19 17 13 2 7 9 12 11 9 9 8 6 14 11 5 5 16 17 15 17 11 8 11 7 8 9 10 7 6 4 5 6 9 11 10 14 15 16 15 19 19 19 20
13 17 13 6 12 15 14 3 6 7 7 4 5 1 3 11 12 5 0 12 4 7 11 14 12 9 11 10 7 6 10 10 8 8 6 6 4 7 9 14 14 14 16 18 22 24 23 19 22
11 12 10 7 9 4 11 6 2 5 8 4 6 5 5 10 10 6 3 5 9 5 4 5 12 15 11 17 14 12 11 9 7 8 8 10 9 10 8 9 15 16 15 16 21 23 32 27 19
3 6 8 3 2 8 7 4 3 7 6 8 6 8 6 10 12 11 5 3 3 6 14 14 17 21 27 28 29 23 20 18 17 14 16 9 11 13 12 12 15 16 12 11 17 12 17 16 17
12 6 7 8 3 3 2 3 4 4 5 5 6 6 8 13 11 11 3 6 6 3 6 14 17 17 18 23 29 32 30 25 23 26 19 17 13 15 14 10 15 28 18 12 11 9 16 15 9
3 6 2 4 1 4 2 5 4 4 5 2 5 6 11 13 12 8 4 7 8 11 10 9 7 4 4 2 5 12 24 27 31 28 27 24 24 23 20 20 29 27 21 14 17 21 19 18 17
5 5 4 2 3 4 7 5 4 5 3 9 7 11 12 13 10 9 6 8 10 14 13 12 10 10 8 7 6 4 3 6 15 17 19 20 20 23 25 27 31 28 24 22 25 27 23 20 18
4 2 6 3 8 6 3 5 7 9 9 9 10 13 13 13 9 8 8 10 16 14 14 13 12 12 10 9 9 8 6 4 1 2 7 16 19 24 26 27 27 28 27 27 29 26 23 21 20
4 7 3 1 2 5 5 10 6 8 10 9 9 12 12 10 10 9 7 11 13 13 12 12 13 13 12 12 10 8 7 5 4 3 5 6 9 13 15 19 22 27 26 28 27 24 20 19 19
4 5 1 1 3 2 4 4 6 9 11 12 11 12 11 8 7 7 8 11 12 12 12 13 14 14 14 13 10 8 7 7 6 5 6 7 7 8 13 16 22 25 28 26 21 19 18 18 18
4 10 7 4 4 4 8 4 2 8 10 10 10 10 9 8 6 7 9 11 11 12 13 13 12 12 13 12 11 10 9 8 7 7 8 8 8 8 11 14 20 24 23 19 19 20 20 20 18

GFSSGP_925_spd_084.txt.gz
Wind_Speed
6 9 10 5 4 6 11 12 13 17 12 16 13 2 6 7 5 2 1 4 4 23 26 26 21 20 18 17 14 14 14 17 19 19 20 19 19 19 18 18 18 18 17 17 17 18 15 14 14
5 7 8 3 7 12 10 14 18 17 19 16 5 5 3 4 11 5 3 0 4 25 25 24 22 19 17 16 15 14 15 16 20 20 22 21 21 19 19 19 20 19 19 17 16 16 15 13 14
4 5 2 4 9 15 9 13 16 16 15 13 4 6 3 4 11 4 5 1 6 26 23 23 22 20 18 16 15 15 13 15 21 21 22 22 23 20 20 20 21 19 19 17 16 16 15 11 13
4 2 3 7 15 16 22 18 20 16 10 10 9 1 4 5 3 8 4 4 10 19 21 22 22 19 19 16 15 14 13 16 23 21 23 23 23 21 21 23 20 19 18 16 15 16 16 11 11
9 3 8 10 17 19 13 18 20 19 17 8 5 6 5 9 9 10 7 11 16 13 16 19 20 19 18 16 15 15 12 15 22 22 23 24 24 22 21 23 20 19 17 18 15 14 14 11 9
3 3 7 14 18 16 17 20 20 15 16 15 7 5 7 15 17 3 10 15 13 13 14 16 18 17 16 16 15 14 13 14 22 21 22 24 24 22 22 23 21 19 17 17 17 16 14 11 9
7 8 12 16 16 16 17 15 17 17 17 15 5 10 3 11 14 14 10 14 16 11 14 13 18 15 14 15 14 13 14 13 20 22 24 26 22 22 21 22 20 17 17 16 15 14 12 11 9
5 7 17 16 14 19 16 17 12 14 22 17 6 6 5 10 23 8 12 15 16 14 16 16 3 11 13 15 15 14 14 14 20 25 26 24 22 20 21 20 19 17 16 16 14 13 11 10 8
6 6 11 16 18 17 14 17 18 13 11 18 10 7 8 24 23 13 7 6 17 20 13 3 25 21 19 11 15 16 16 18 22 24 26 23 21 19 18 19 19 17 16 14 13 12 10 9 8
6 8 14 14 15 14 16 19 17 18 17 11 7 8 9 20 22 17 15 11 9 9 21 34 33 36 36 31 20 19 19 22 22 25 24 21 20 19 18 17 18 17 16 14 12 11 10 9 6
6 14 14 17 18 16 19 21 16 16 18 14 10 10 9 8 11 7 11 17 24 11 8 21 26 21 33 33 20 23 23 25 23 24 22 17 19 21 22 20 18 18 16 14 12 11 10 9 8
12 16 17 18 16 16 18 20 18 16 19 15 10 7 2 6 7 10 10 15 24 19 10 13 20 17 27 28 31 27 28 28 28 25 23 22 23 24 18 18 17 16 16 12 11 9 9 8 6
14 15 16 15 15 15 18 19 19 21 18 19 14 10 1 3 7 8 13 12 15 21 17 12 15 12 19 21 31 31 29 29 28 27 26 23 26 23 19 16 16 15 12 14 12 12 9 10 10
13 17 16 16 16 16 18 18 17 20 17 20 17 11 9 5 3 18 16 16 17 20 22 16 22 18 8 16 16 37 29 28 26 26 24 24 22 25 18 17 17 17 14 13 14 12 11 12 12
10 15 14 14 16 18 16 21 22 15 20 21 18 12 13 9 17 25 22 20 22 21 17 15 11 6 5 12 18 30 27 30 26 25 20 19 19 23 20 19 18 17 15 14 13 13 12 12 12
14 12 11 11 15 21 17 19 17 20 17 20 19 16 9 9 7 16 19 18 23 18 14 16 8 5 5 7 12 21 24 24 25 25 24 21 22 21 20 17 16 15 15 13 13 14 12 12 12
6 9 15 17 15 14 18 17 21 21 16 20 18 10 9 7 9 9 17 17 13 15 15 13 11 10 9 17 10 14 20 22 21 23 25 21 18 18 17 15 14 13 14 12 12 12 13 13 14
5 8 9 11 8 15 16 20 16 10 9 9 16 14 8 7 4 5 6 6 6 13 14 15 16 19 24 23 17 20 14 15 22 21 21 22 19 18 16 14 13 10 13 12 11 12 13 14 15
14 17 20 17 18 8 15 15 20 10 5 6 8 7 7 7 6 4 6 10 4 12 14 17 19 19 19 17 25 19 20 20 18 19 19 17 16 15 13 11 13 12 10 12 12 14 14 16 17
16 18 19 16 16 10 9 16 13 9 2 3 7 7 5 4 8 3 7 9 9 4 9 15 15 21 26 15 7 8 12 19 14 14 13 13 15 14 14 14 14 16 13 12 10 10 5 17 16
16 17 15 12 6 10 7 8 9 4 3 4 4 3 6 8 7 7 8 4 7 3 3 9 9 15 16 10 9 6 6 8 8 8 10 9 9 10 9 11 13 12 11 12 9 12 15 13 14
10 13 17 10 7 3 8 3 8 4 7 4 4 3 7 7 5 5 5 12 3 6 9 4 10 8 13 14 8 6 4 4 6 7 6 6 4 8 12 15 15 16 16 16 16 17 19 20 18
6 1 10 5 4 4 8 2 2 4 3 8 3 6 7 5 7 8 8 12 10 10 4 2 4 12 16 11 11 6 6 6 5 3 9 13 14 17 17 17 17 18 19 20 15 14 16 19 18
5 1 2 1 1 3 1 2 2 3 2 5 3 9 8 5 9 9 15 18 12 10 8 8 9 2 6 9 13 19 17 14 11 12 15 23 22 22 21 23 21 19 19 19 16 13 17 19 14
7 6 2 4 1 3 2 2 2 3 2 5 5 9 9 9 8 10 12 12 13 15 14 12 8 8 4 3 13 27 26 26 27 27 27 26 25 25 26 23 25 10 20 20 14 13 19 24 19
2 5 2 3 3 3 6 3 3 3 6 7 10 9 8 10 8 9 10 13 13 17 14 13 12 13 9 7 7 3 1 4 28 24 21 30 27 25 23 23 19 15 25 18 13 21 24 23 16
3 2 4 3 7 2 4 2 4 5 7 9 10 8 8 7 10 12 12 17 15 15 17 17 16 16 14 12 12 12 9 8 5 1 1 6 12 16 19 24 25 27 25 24 24 26 25 22 22
4 7 3 2 2 3 1 5 4 4 8 8 9 8 8 9 8 8 10 13 13 15 15 16 16 17 16 15 15 13 13 10 7 6 4 4 7 9 13 15 18 21 22 26 26 27 24 21 22
3 4 3 2 2 1 3 3 6 10 8 9 9 8 7 8 7 7 7 14 12 13 13 14 15 16 16 16 15 14 13 12 11 9 8 8 8 8 11 13 14 18 20 24 24 25 25 21 20
4 5 3 3 5 4 5 3 9 10 11 10 9 8 6 6 7 6 9 12 12 12 13 14 14 14 14 15 14 14 13 12 11 10 10 9 10 11 13 12 14 16 20 22 22 23 21 21 21

GFSSGP_925_spd_090.txt.gz
Wind_Speed
4 2 5 3 3 4 2 7 3 6 4 1 4 3 7 1 3 3 2 8 14 27 28 25 21 20 20 20 21 19 17 17 17 16 16 17 17 18 18 18 18 17 18 19 19 17 17 17 18
3 5 3 2 3 3 4 5 7 7 3 9 7 4 2 3 1 2 1 7 22 28 28 25 22 20 19 18 17 18 17 16 16 17 17 17 18 18 19 19 18 19 17 17 17 16 18 21 21
3 4 3 4 4 5 5 4 9 8 8 5 5 1 3 4 2 5 5 12 23 25 27 25 23 20 18 16 15 15 16 17 17 17 17 18 19 19 19 20 22 19 20 16 14 15 18 21 21
3 4 3 2 7 5 5 5 3 9 6 3 6 7 3 6 6 11 10 17 21 24 26 26 23 20 18 16 13 12 13 17 18 18 19 19 19 20 20 24 22 21 21 19 14 15 17 21 19
2 2 1 2 5 5 5 4 6 10 7 3 4 5 3 3 3 11 17 19 25 24 23 23 20 18 16 13 11 11 12 13 20 20 21 21 21 21 23 23 23 21 20 20 17 15 16 18 19
3 2 1 3 4 5 6 5 1 4 7 6 8 3 4 4 6 8 19 24 26 25 21 17 14 14 14 11 8 9 9 7 16 20 22 23 23 22 24 24 22 22 20 19 18 15 16 17 19
5 3 3 3 3 3 3 4 2 3 6 6 4 5 3 3 8 7 16 20 25 24 23 22 18 16 16 14 10 8 6 6 13 20 21 22 23 24 26 23 23 21 19 19 22 17 14 16 18
3 3 2 3 3 6 5 7 5 4 8 6 5 4 8 6 16 12 13 16 19 21 22 26 22 20 17 13 9 5 2 2 7 18 19 21 23 25 27 24 24 23 21 21 19 18 16 15 16
2 1 3 4 3 4 6 7 1 3 5 5 4 5 10 4 22 17 12 14 16 21 23 23 24 21 20 14 9 7 8 6 4 16 19 22 25 28 28 26 24 24 24 22 22 20 17 15 15
3 3 7 5 2 4 8 8 10 7 11 6 2 8 17 6 8 14 15 12 15 16 19 20 22 22 21 15 5 4 4 14 13 9 21 26 30 31 30 28 26 24 26 24 21 19 16 15 14
3 4 4 4 8 8 7 13 6 7 13 4 12 11 8 18 16 11 5 12 19 18 17 18 16 18 17 15 21 18 20 20 25 19 22 30 34 33 33 31 28 26 25 24 21 19 18 16 15
4 6 4 3 6 7 9 8 11 11 10 9 9 9 5 11 7 12 15 15 14 17 18 17 18 18 18 20 25 24 28 31 23 15 22 27 36 36 35 35 32 29 28 26 23 21 19 17 15
4 4 5 6 7 7 11 13 9 15 11 9 11 14 7 8 12 14 16 15 16 17 14 16 17 17 15 16 19 21 28 28 22 18 22 31 23 39 36 36 33 30 28 26 24 21 20 19 18
4 4 6 4 10 9 11 16 4 6 14 18 15 15 9 7 10 12 13 19 19 17 15 15 17 17 15 16 17 20 20 23 18 29 28 34 32 30 35 35 35 32 30 27 24 23 21 19 18
5 7 8 11 8 6 7 15 12 14 12 19 21 15 11 8 13 17 23 22 23 22 16 21 20 15 14 16 19 21 19 18 23 32 35 39 38 30 33 34 34 33 31 26 23 21 19 18 18
4 4 4 5 1 6 7 14 11 13 13 17 18 13 11 14 11 20 21 24 21 16 21 20 25 19 15 19 23 26 25 28 31 35 37 42 38 31 32 34 34 31 30 27 24 22 21 20 19
3 4 5 6 6 5 6 10 6 9 14 16 15 14 9 11 12 18 22 20 23 20 18 20 23 19 20 22 24 27 27 27 25 27 30 41 41 37 35 32 32 32 30 28 26 24 23 21 19
6 6 6 7 5 10 13 20 20 15 10 15 9 11 11 8 12 12 15 15 18 17 15 17 18 21 22 20 18 22 24 25 29 23 27 36 37 39 36 36 31 30 29 28 27 25 24 21 18
3 4 13 17 13 14 16 15 18 14 10 9 9 9 7 9 11 8 7 10 10 12 15 17 19 23 23 22 21 23 23 26 27 35 31 29 35 39 39 34 31 31 32 30 28 26 23 21 16
8 14 19 17 13 5 10 17 20 14 7 5 5 7 8 5 5 3 4 8 6 7 13 15 20 20 24 18 20 21 21 22 23 33 33 34 32 33 38 33 32 31 31 30 30 29 22 20 19
11 13 16 13 13 11 12 11 6 3 2 7 6 5 4 6 6 6 10 14 11 6 2 9 17 19 18 16 14 20 17 14 15 21 30 31 31 34 34 34 34 31 31 33 33 31 27 22 21
12 4 12 8 7 3 4 4 4 5 4 6 9 10 10 5 6 7 7 13 7 5 3 6 3 10 17 20 12 21 15 13 15 18 24 28 29 26 25 34 28 28 28 30 30 29 27 24 18
7 8 9 5 4 3 4 4 4 5 3 6 9 10 6 7 7 7 8 17 5 5 6 7 10 13 11 21 10 7 15 14 19 18 21 18 16 20 19 18 17 17 17 19 20 22 24 24 16
10 9 3 4 2 3 4 4 2 4 5 5 7 8 9 7 7 7 9 10 10 14 13 13 16 17 20 19 6 9 11 9 9 15 18 16 15 13 13 9 13 18 17 21 20 21 21 24 25
5 1 2 2 1 2 2 4 0 7 7 5 2 6 8 10 9 9 10 8 17 21 18 19 22 26 19 15 13 11 8 3 3 1 4 6 9 14 17 16 19 22 21 18 20 23 21 24 22
4 3 2 3 1 1 2 1 1 7 4 4 6 6 8 11 11 10 11 15 18 15 20 22 26 22 18 20 18 17 11 8 5 6 3 8 12 12 15 17 20 21 23 23 21 21 22 27 24
1 3 3 2 1 3 1 1 2 4 5 7 8 10 11 8 10 9 13 13 15 17 19 19 19 19 20 17 17 17 16 11 9 9 9 8 7 6 4 8 17 18 21 23 23 23 24 23 24
6 2 2 2 1 2 3 2 4 2 3 7 8 8 7 8 8 9 9 13 14 15 17 19 20 20 18 18 19 18 16 16 15 11 10 12 12 11 8 7 8 7 8 12 19 24 27 27 27
1 4 4 1 3 1 2 3 3 1 3 5 4 5 6 5 5 5 6 9 11 15 17 19 20 19 19 17 17 17 18 17 15 13 12 11 9 8 9 8 8 8 9 11 15 17 21 24 27
3 5 3 3 1 2 3 2 3 4 7 7 5 5 6 4 5 3 5 10 13 14 16 19 19 19 18 16 17 18 17 16 17 16 16 13 11 9 9 8 8 8 8 9 12 16 19 22 24

GFSSGP_925_spd_093.txt.gz
Wind_Speed
4 3 1 4 4 4 3 6 1 2 1 1 6 4 6 4 4 4 1 13 5 16 26 23 20 17 16 17 17 17 17 17 15 16 15 15 15 15 17 17 18 19 17 18 14 15 16 17 18
3 3 4 3 4 3 5 4 4 4 4 9 5 6 1 5 2 4 3 7 13 22 28 26 23 20 19 19 17 16 16 16 16 15 16 16 17 16 16 17 17 17 18 18 16 15 16 18 18
4 4 3 4 3 5 5 4 6 6 8 4 5 2 3 4 3 3 3 8 16 26 27 25 23 21 20 19 17 15 15 15 16 16 16 16 17 18 17 17 19 17 18 17 16 16 18 18 17
3 5 4 3 6 5 5 3 2 5 6 6 4 7 5 1 2 5 3 12 20 23 25 24 22 21 19 17 16 15 15 15 15 16 16 17 17 18 18 19 22 19 14 14 15 18 20 20 16
6 3 3 2 4 4 5 5 5 5 3 5 6 5 3 3 2 3 4 15 21 24 25 24 21 19 17 15 12 12 12 15 15 17 17 17 18 18 18 21 22 21 19 15 15 18 21 19 17
4 2 2 3 4 4 5 2 3 2 3 8 7 8 4 11 7 6 7 17 18 21 22 22 20 18 17 15 11 10 11 11 15 18 19 20 20 20 19 24 23 21 22 18 16 17 20 19 16
5 3 3 2 3 3 4 1 1 2 4 3 7 5 7 11 16 9 6 9 14 19 22 22 22 21 20 17 15 13 11 8 10 18 20 21 20 21 22 23 21 23 22 20 16 17 18 20 18
4 3 2 3 3 4 2 5 3 4 3 6 5 3 5 12 13 8 4 8 11 17 22 23 22 21 21 18 13 9 7 4 3 13 18 19 20 22 22 26 22 21 21 22 20 17 18 19 19
3 2 3 4 5 3 5 6 4 4 4 4 3 2 6 10 13 7 6 5 11 16 19 23 23 25 20 17 13 10 7 4 4 6 13 17 20 23 26 28 25 23 23 22 23 19 18 18 18
3 3 6 4 1 2 5 4 5 4 6 3 4 9 18 21 14 10 12 7 9 15 19 20 22 24 24 20 12 12 9 6 6 9 9 15 21 25 30 29 26 25 23 23 22 21 19 18 18
2 4 4 3 5 4 4 7 3 4 7 5 7 7 9 15 20 12 15 17 14 11 16 19 20 24 24 23 18 13 11 5 4 9 7 13 21 28 32 30 29 27 27 25 24 24 21 20 19
2 4 3 3 5 4 6 4 7 10 9 6 7 7 5 9 9 12 14 24 22 21 18 17 19 20 23 21 20 18 17 19 17 18 15 12 22 29 32 33 32 31 30 29 27 26 23 21 19
1 3 5 7 7 8 8 10 11 12 13 13 7 7 9 9 14 25 24 14 23 21 22 22 22 22 23 24 25 23 25 27 29 28 23 12 22 29 31 34 34 34 32 30 30 27 25 23 21
4 4 7 5 9 8 12 17 5 3 12 18 16 13 8 10 13 20 24 20 16 22 22 21 23 23 23 24 21 21 21 23 24 29 27 26 24 29 25 33 38 36 33 34 32 30 27 24 22
5 7 7 6 7 6 6 13 9 12 10 13 16 15 13 10 18 16 26 25 24 25 25 23 25 23 24 22 20 20 18 19 23 26 31 31 26 33 36 25 33 31 34 36 33 30 25 24 22
5 3 4 6 3 5 7 15 15 12 8 13 12 15 14 9 15 24 28 24 27 28 31 26 25 26 26 25 21 21 20 19 23 27 30 34 30 32 38 37 29 32 29 37 33 30 27 26 25
4 4 4 7 3 5 6 10 7 7 10 16 17 14 13 10 11 21 26 22 27 25 28 26 26 28 26 23 20 21 19 23 27 31 35 31 30 36 38 34 30 29 35 36 35 32 31 27 25
4 3 4 6 4 5 13 22 24 15 9 13 13 13 12 9 12 22 24 18 21 21 23 23 23 23 24 23 22 21 17 21 28 35 37 38 35 38 37 37 29 36 38 37 39 35 30 28 26
2 3 10 12 14 11 14 19 21 14 6 11 12 9 11 12 12 21 14 9 10 13 16 17 16 18 21 22 23 22 24 21 25 29 26 30 34 34 38 37 35 32 34 40 39 33 30 29 23
8 13 16 13 7 3 10 16 19 19 8 6 7 8 9 6 3 5 6 10 8 4 4 9 15 14 15 20 24 22 20 22 20 28 32 25 27 29 37 35 38 40 37 36 37 34 26 28 24
9 13 16 11 9 12 11 9 5 3 2 6 7 7 10 6 5 7 8 9 8 5 4 6 11 14 18 22 23 22 23 25 21 24 33 33 30 27 29 33 36 36 38 37 36 35 33 25 26
12 7 12 14 5 3 1 4 3 4 3 6 8 9 10 10 8 9 7 7 7 6 3 7 8 10 17 20 22 21 21 21 20 24 31 34 29 23 24 30 29 31 35 35 35 36 35 24 22
7 5 10 14 5 3 4 2 5 4 5 7 8 10 11 8 8 7 6 8 10 9 9 7 7 12 9 12 15 10 18 27 21 16 16 28 29 22 16 22 26 24 27 29 35 32 31 26 18
8 10 13 3 3 2 3 4 4 4 5 6 8 10 11 11 10 10 12 13 16 14 16 15 14 17 19 17 15 8 13 5 10 5 6 21 23 19 17 16 12 9 7 8 18 21 21 23 25
5 3 3 1 1 4 1 2 3 7 8 5 7 8 10 10 10 10 11 11 18 17 17 16 17 24 22 21 22 19 14 18 17 10 6 10 15 12 11 12 7 11 16 16 16 17 17 19 18
4 2 2 4 1 2 1 2 2 6 6 5 7 7 9 11 10 9 11 11 13 15 21 16 20 22 21 24 23 19 18 17 16 17 19 12 3 4 6 7 11 16 19 18 21 21 21 22 24
1 3 2 4 2 1 3 1 2 4 7 7 8 9 9 9 8 8 8 15 16 17 23 22 21 22 23 21 20 21 19 17 17 15 14 12 10 11 6 8 12 18 21 22 23 26 30 27 28
3 4 2 2 3 2 2 3 3 3 3 5 6 7 6 5 7 7 9 14 15 16 15 16 18 19 18 19 19 18 19 19 17 15 15 14 13 10 6 3 2 5 9 13 20 25 28 27 28
2 2 4 2 2 2 2 2 4 1 1 3 5 5 3 4 5 5 7 8 10 12 15 18 19 20 19 19 19 19 20 19 17 17 16 15 12 11 9 7 6 7 10 11 11 10 12 18 22
3 3 3 2 2 1 1 2 5 4 4 3 6 5 2 2 0 1 3 6 11 14 17 18 18 18 16 16 18 19 18 19 20 20 19 18 16 14 12 11 8 7 8 8 10 12 15 17 20

GFSSGP_925_spd_099.txt.gz
Wind_Speed
1 3 4 5 3 2 2 3 1 2 2 2 3 4 4 3 3 1 7 6 3 7 16 17 18 18 19 18 16 15 15 16 16 15 14 12 12 12 13 15 15 16 16 16 14 13 14 13 14
3 5 4 2 3 2 3 2 5 2 3 8 2 1 1 1 2 4 5 17 10 5 15 16 17 17 19 20 18 17 15 14 14 15 14 13 13 13 14 14 15 16 17 15 16 15 16 13 14
5 3 3 3 2 5 2 3 2 2 3 4 2 1 2 5 9 7 16 16 10 10 17 17 16 16 17 18 18 18 17 15 13 15 15 15 13 14 14 14 17 15 17 16 17 18 19 15 15
1 4 3 2 4 3 2 5 1 2 2 4 2 0 2 11 7 11 18 14 7 8 16 18 17 15 15 17 18 17 16 16 15 14 14 14 15 15 16 16 15 17 18 14 17 18 17 17 16
6 3 3 2 4 3 3 3 2 0 1 2 2 2 3 3 16 14 15 12 7 7 16 16 15 14 14 15 15 16 16 16 16 15 14 15 14 15 16 17 15 18 17 13 16 18 18 17 14
3 2 2 2 4 3 3 3 1 2 1 3 2 4 3 3 24 23 18 14 9 6 13 15 14 14 15 15 15 14 15 14 14 15 15 15 15 15 16 15 17 18 18 14 15 18 17 17 14
5 2 2 2 2 3 1 5 2 0 1 0 3 4 2 3 20 21 19 14 11 7 9 16 17 15 14 14 14 13 12 13 15 15 15 15 15 15 17 17 20 19 16 15 14 18 18 17 14
4 3 3 2 2 2 4 4 1 3 1 7 1 3 3 5 21 21 19 15 11 10 5 14 18 19 18 16 15 14 13 12 12 13 16 16 15 14 15 17 20 19 16 14 13 18 19 17 15
2 3 2 3 5 1 2 5 2 2 4 3 3 3 9 20 22 26 23 19 15 9 9 8 15 19 20 20 19 17 15 14 11 10 12 16 17 15 16 17 20 22 19 16 15 16 19 19 17
3 2 5 2 2 2 5 1 4 4 4 5 8 11 11 22 25 20 18 16 16 15 11 12 13 19 20 21 22 20 17 13 10 7 10 15 17 17 17 19 21 23 23 21 18 16 17 19 16
2 3 4 1 2 4 4 7 3 4 5 7 5 6 11 14 23 19 18 18 21 19 15 13 16 17 20 20 19 17 16 15 11 7 4 11 13 16 18 19 22 24 24 23 24 20 18 18 19
3 2 2 1 2 2 3 4 6 10 10 11 15 11 7 14 16 16 22 26 29 25 20 17 16 19 21 20 21 19 19 17 17 15 14 14 15 17 21 24 25 27 29 26 24 24 21 22 22
1 1 2 2 8 6 6 11 10 11 15 15 16 14 12 11 18 26 27 29 29 28 23 19 20 21 24 24 24 22 22 22 19 16 14 11 13 16 20 25 28 33 33 30 30 28 26 25 24
1 2 5 6 5 5 6 5 1 9 6 9 12 14 13 12 17 20 22 25 25 28 26 18 19 22 25 26 26 26 23 22 20 20 20 20 21 20 21 25 29 30 36 37 34 33 32 32 27
1 4 6 2 2 4 4 4 7 10 8 9 10 11 13 13 17 20 24 28 30 30 27 23 19 21 25 26 28 27 27 25 24 24 23 21 21 23 24 24 29 34 33 31 37 36 32 29 26
4 3 4 2 5 2 5 7 5 9 6 12 14 16 14 16 19 21 25 29 32 30 27 26 22 20 24 30 32 30 29 29 28 24 21 20 20 19 19 21 24 29 35 32 36 35 35 31 29
6 1 2 7 2 2 1 11 10 11 14 18 16 14 15 15 19 24 25 29 31 29 27 25 23 22 24 26 27 26 24 25 25 23 21 21 21 22 20 22 27 24 27 30 33 32 33 37 30
1 2 3 5 2 2 13 19 17 14 12 16 15 14 14 15 18 25 22 27 29 30 28 26 21 20 19 19 18 20 21 23 24 24 25 25 24 23 22 24 25 27 29 31 31 30 36 30 29
5 1 5 5 9 6 9 15 17 16 8 7 7 8 11 11 16 17 15 19 23 23 24 22 16 15 15 15 12 13 17 19 21 23 24 24 26 28 24 28 28 30 33 35 32 33 30 26 29
2 4 6 8 5 4 10 18 16 6 2 2 8 9 10 10 12 14 14 11 6 7 10 10 10 11 11 10 12 12 14 16 20 21 24 26 26 27 27 30 32 34 35 35 35 34 26 28 29
3 3 2 6 8 8 8 8 3 2 2 6 7 8 9 9 11 11 15 17 19 8 2 7 6 4 2 5 10 14 16 18 19 20 21 25 25 28 28 30 32 34 39 36 38 36 36 27 23
2 5 9 9 7 4 3 5 4 2 5 4 6 8 10 11 10 10 12 16 15 13 14 12 9 9 7 8 11 14 16 14 15 20 27 31 27 30 28 31 31 27 32 35 37 38 37 31 25
6 5 6 9 9 7 4 4 4 2 3 9 6 8 8 8 9 10 11 11 13 18 18 14 15 14 11 7 6 13 16 8 4 9 11 17 21 27 30 29 28 31 25 14 18 21 24 24 18
6 5 9 11 5 4 3 3 3 2 5 8 5 6 7 8 10 10 14 15 17 20 21 18 19 18 15 13 11 9 7 6 9 13 12 14 16 14 26 28 26 26 22 19 24 29 30 29 25
5 3 3 2 2 5 5 4 5 3 6 8 3 5 7 8 9 10 11 15 18 21 23 19 22 21 18 19 19 17 16 16 14 16 16 19 20 25 19 13 15 13 12 13 14 28 26 26 27
4 2 1 3 2 3 5 4 2 2 5 5 6 5 6 7 8 10 12 13 15 18 20 18 19 23 21 24 23 24 21 19 17 17 18 20 21 21 20 16 8 3 6 9 7 8 14 24 26
3 2 2 3 3 3 2 2 3 1 2 7 7 7 7 8 9 10 12 11 12 16 16 14 11 20 20 21 18 19 19 20 21 21 19 21 22 20 18 19 17 14 12 11 2 5 11 16 21
2 2 1 1 3 4 2 2 4 7 5 3 4 5 8 8 7 7 9 11 12 15 15 17 19 15 15 15 14 16 20 22 22 22 23 23 22 20 19 19 17 16 14 12 10 9 10 6 23
3 2 2 2 2 2 4 1 5 5 4 4 1 5 6 7 6 7 10 12 13 12 13 14 14 15 17 18 20 21 22 22 21 23 23 22 21 21 21 19 17 17 15 14 11 10 11 13 15
2 3 3 2 2 2 1 3 4 3 4 3 5 7 5 2 2 4 5 6 7 10 11 13 13 15 15 16 18 19 20 20 21 21 21 20 21 21 21 20 19 18 16 15 15 14 14 12 12